Hyannis, MA

8:45 AM EDT on July 22, 2017 (GMT -0400)
Barnstable Municipal-Boardman-Polando Field

Weather History for KHYA - November, 2011

Change the Weather History Date:

Wednesday, November 2, 2011

  Actual Average Record
Temperature  
Mean Temperature 43 °F -  
Max Temperature 54 °F 57 °F 72 °F (1956)
Min Temperature 30 °F 40 °F 26 °F (2010)
Degree Days  
Heating Degree Days 22    
Moisture  
Dew Point 37 °F    
Average Humidity 79    
Maximum Humidity 93    
Minimum Humidity 61    
Precipitation  
Precipitation 0.00 in - - ()
Sea Level Pressure  
Sea Level Pressure 30.29 in    
Wind  
Wind Speed 6 mph (NNE)    
Max Wind Speed 13 mph    
Max Gust Speed -    
Visibility 10 miles    
Events      
Averages and records for this station are not official NWS values.
T = Trace of Precipitation, MM = Missing Value Source: NWS Daily Summary

Daily Weather History Graph

Daily Weather History Graph

Search for Another Location

Airport or City:

Trip Planner

Search our weather history database for the weather conditions in past years. The results will help you decide how hot, cold, wet, or windy it might be!

Date:

Astronomy

Nov. 02, 2011 Rise Set
Actual Time 7:13 AM EDT 5:34 PM EDT
Civil Twilight 6:45 AM EDT 6:03 PM EDT
Nautical Twilight 6:12 AM EDT 6:36 PM EDT
Astronomical Twilight 5:39 AM EDT 7:08 PM EDT
Moon 1:31 PM EDT (11/2) No Moon Set
Length of Visible Light 11h 18m
Length of Day
10h 20m
Waxing Crescent, 50% of the Moon is Illuminated
Nov 2
Waxing Crescent
Nov 2
First Quarter
Nov 10
Full
Nov 18
Last Quarter
Nov 25
New

Hourly Weather History & Observations

Time (EDT) Temp. Windchill Dew Point Humidity Pressure Visibility Wind Dir Wind Speed Gust Speed Precip Events Conditions
12:56 AM 45.0 °F 40.1 °F 37.9 °F 76% 30.29 in 10.0 mi NNE 9.2 mph - N/A   Clear
1:56 AM 45.0 °F 40.6 °F 37.9 °F 76% 30.28 in 10.0 mi NNE 8.1 mph - N/A   Clear
2:56 AM 45.0 °F 41.8 °F 37.9 °F 76% 30.30 in 10.0 mi NNE 5.8 mph - N/A   Clear
3:56 AM 43.0 °F 38.8 °F 37.9 °F 82% 30.31 in 10.0 mi NNE 6.9 mph - N/A   Clear
4:56 AM 43.0 °F 39.5 °F 37.0 °F 80% 30.34 in 10.0 mi NNE 5.8 mph - N/A   Clear
5:56 AM 42.1 °F 39.2 °F 37.0 °F 82% 30.35 in 10.0 mi NNE 4.6 mph - N/A   Scattered Clouds
6:56 AM 41.0 °F 39.0 °F 37.0 °F 86% 30.35 in 10.0 mi NE 3.5 mph - N/A   Clear
7:56 AM 44.6 °F 41.4 °F 39.2 °F 81% 30.36 in 10.0 mi NNE 5.8 mph - N/A   Clear
8:56 AM 48.9 °F - 39.0 °F 69% 30.38 in 10.0 mi NNE 12.7 mph - N/A   Clear
1:56 PM 53.1 °F - 41.0 °F 64% 30.28 in 10.0 mi NNE 11.5 mph - N/A   Clear
2:56 PM 54.0 °F - 41.0 °F 62% 30.27 in 10.0 mi NNE 9.2 mph - N/A   Clear
3:56 PM 53.1 °F - 39.9 °F 61% 30.27 in 10.0 mi North 8.1 mph - N/A   Clear
4:56 PM 51.1 °F - 39.0 °F 63% 30.26 in 10.0 mi NE 4.6 mph - N/A   Clear
5:56 PM 42.8 °F - 37.4 °F 81% 30.26 in 10.0 mi Calm Calm - N/A   Clear
6:56 PM 39.0 °F - 36.0 °F 89% 30.27 in 10.0 mi Calm Calm - N/A   Clear
7:56 PM 36.0 °F - 34.0 °F 93% 30.26 in 10.0 mi Calm Calm - N/A   Clear
8:56 PM 35.1 °F - 33.1 °F 92% 30.26 in 10.0 mi Calm Calm - N/A   Clear
9:56 PM 33.1 °F - 30.9 °F 92% 30.25 in 10.0 mi Calm Calm - N/A   Clear
10:56 PM 32.0 °F - 30.0 °F 92% 30.23 in 10.0 mi Calm Calm - N/A   Clear
11:56 PM 30.2 °F - 28.4 °F 93% 30.21 in 10.0 mi Calm Calm - N/A   Clear